Location: M.A.R.S.Observatory
(35.4031°N, 81.5481°W)
Time: 07:43:25
(UTC-04:00)

SL-8 R/B - Visible Passes

Search period start: 19 April 2018 00:00
Search period end: 29 April 2018 00:00
Orbit: 656 x 668 km, 48.4° (Epoch: 18 April)

Date Brightness Start Highest point End Pass type
(mag) Time Alt. Az. Time Alt. Az. Time Alt. Az.
19 Apr 4.8 04:00:25 41° NE 04:00:25 41° NE 04:04:47 10° E visible
19 Apr 4.2 05:38:31 11° WNW 05:42:44 39° SW 05:47:11 10° SSE visible
19 Apr 3.5 21:33:01 10° SW 21:37:46 76° SE 21:41:34 16° ENE visible
19 Apr 5.7 23:16:35 10° W 23:19:41 25° NW 23:19:41 25° NW visible
20 Apr 3.8 04:31:59 68° SE 04:31:59 68° SE 04:36:11 10° SE visible
20 Apr 5.3 06:10:43 10° W 06:13:21 15° SW 06:15:58 10° SSW visible
20 Apr 4.5 20:22:15 10° SSW 20:26:28 32° SE 20:30:42 10° ENE visible
20 Apr 4.6 22:04:14 10° WSW 22:08:51 48° NNW 22:12:50 14° NE visible
20 Apr 6.3 23:48:51 10° WNW 23:50:55 17° NNW 23:50:55 17° NNW visible
21 Apr 4.9 05:04:04 26° S 05:04:04 26° S 05:06:36 10° SSE visible
21 Apr 3.6 20:52:30 10° SW 20:57:16 82° SE 21:02:05 10° NE visible
21 Apr 5.7 22:36:10 10° W 22:40:14 27° NNW 22:43:31 14° NNE visible
22 Apr 6.7 00:20:56 10° NW 00:21:33 12° NW 00:21:33 12° NW visible
22 Apr 4.8 21:23:47 10° WSW 21:28:23 45° NNW 21:33:00 10° NE visible
22 Apr 6.1 23:08:27 10° NW 23:11:50 19° N 23:13:44 15° NNE visible
23 Apr 5.8 21:55:46 10° WNW 21:59:46 26° NNW 22:03:47 10° NE visible
23 Apr 6.2 23:40:30 10° NW 23:43:36 17° N 23:43:39 17° N visible
24 Apr 4.9 20:43:21 10° W 20:47:54 43° NNW 20:52:28 10° NE visible
24 Apr 6.2 22:28:03 10° NW 22:31:24 18° N 22:34:45 10° NE visible
25 Apr 6.5 00:11:53 10° NW 00:13:22 15° NNW 00:13:22 15° NNW visible
25 Apr 5.8 21:15:23 10° WNW 21:19:19 25° NNW 21:23:16 10° NE visible
25 Apr 6.1 23:00:03 10° NW 23:03:10 17° N 23:05:00 14° NNE visible
26 Apr 6.8 00:42:47 10° NW 00:42:59 11° NW 00:42:59 11° NW visible
26 Apr 6.2 21:47:39 10° NW 21:50:57 18° N 21:54:16 10° NE visible
26 Apr 6.0 23:31:24 10° NW 23:34:32 19° N 23:34:32 19° N visible
27 Apr 5.9 20:34:59 10° WNW 20:38:51 24° NNW 20:42:45 10° NE visible
27 Apr 6.2 22:19:36 10° NW 22:22:43 17° N 22:25:50 10° NE visible
28 Apr 6.2 00:02:16 10° NW 00:04:00 19° NNW 00:04:00 19° NNW visible
28 Apr 6.2 21:07:15 10° NW 21:10:31 18° N 21:13:47 10° NE visible
28 Apr 5.8 22:50:54 10° NW 22:54:27 20° NNE 22:55:30 19° NNE visible
